Regional Weather Roundup
Issued by NWS

Home | Current Version | Previous Version | Graphics & Text | Print | Product List | Glossary On
Versions: 1 2 3 4 5 6 7 8 9 10 11 12 13 14 15 16 17 18 19 20 21 22 23 24 25 26 27 28 29 30 31 32 33 34 35 36 37 38 39 40 41 42 43 44 45 46 47 48 49 50
428
ASUS43 KLSX 131607
RWRMO

WEATHER SUMMARY FOR MISSOURI
NATIONAL WEATHER SERVICE SPRINGFIELD MO
1000 AM CST SAT FEB 13 2016

NOTE: "FAIR" INDICATES FEW OR NO CLOUDS BELOW 12,000 FEET WITH NO
       SIGNIFICANT WEATHER AND/OR OBSTRUCTIONS TO VISIBILITY.
       CURRENT SKY AND/OR WEATHER CONDITIONS ARE NOT AVAILABLE FOR
       CHILLICOTHE AND FARMINGTON.

MOZ001>031-035>038-043-044-053-054-131700-
...NORTHERN AND WESTERN MISSOURI...

CITY           SKY/WX    TMP DP  RH WIND       PRES   REMARKS
KANSAS CTY INT CLOUDY    17   3  54 SE8       30.57F WCI   7
KANSAS C DTWN  CLOUDY    19   2  47 E9        30.59F WCI   8
LEE`S SUMMIT   CLOUDY    17   2  51 E10       30.58F WCI   5
ST JOSEPH      CLOUDY    15   2  56 E8        30.61F WCI   4
CHILLICOTHE      N/A     13   0  56 E8        30.65F WCI   2
KIRKSVILLE     CLOUDY    11  -3  53 E5        30.63F WCI   3

$$
MOZ066>068-077>081-088>096-101>105-131700-
...SOUTHWEST MISSOURI...

CITY           SKY/WX    TMP DP  RH WIND       PRES   REMARKS
SPRINGFIELD    CLOUDY    25   0  33 E8        30.53S WCI  16
JOPLIN         SUNNY     27   2  34 E12       30.53F WCI  17

$$
MOZ032>034-039>042-045>050-055>058-069>072-131700-
...CENTRAL MISSOURI...

CITY           SKY/WX    TMP DP  RH WIND       PRES   REMARKS
COLUMBIA       PTSUNNY   15   2  56 NE5       30.62F WCI   8
JEFFERSON CITY CLOUDY    15   0  51 E8        30.66F WCI   4
ROLLA          CLOUDY    15   2  56 NE6       30.57F WCI   6
SEDALIA        CLOUDY    17   3  54 E9        30.61F WCI   6
WHITEMAN AFB   CLOUDY    17   2  53 NE6       30.59F WCI   8
WARRENSBURG    CLOUDY    18   3  53 E6        30.60F WCI   9
OSAGE BEACH    CLOUDY    18   0  45 NE10      30.59F WCI   6

$$
MOZ051-052-059>065-131700-
...EAST CENTRAL MISSOURI...

CITY           SKY/WX    TMP DP  RH WIND       PRES   REMARKS
ST LOUIS INTL  CLOUDY    16  -1  47 N7        30.67F WCI   6
SPIRIT OF STL  CLOUDY    16   1  51 N6        30.67F WCI   7
ST CHARLES     CLOUDY    14   1  56 MISG      30.68F

$$
MOZ072>076-082>087-097>100-106>115-131700-
...SOUTH CENTRAL AND SOUTHEAST MISSOURI...

CITY           SKY/WX    TMP DP  RH WIND       PRES   REMARKS
CAPE GIRARDEAU CLOUDY    19   5  54 N9        30.64F WCI   8
FARMINGTON     CLOUDY    15   4  61 N7        30.61F WCI   5
POPLAR BLUFF   CLOUDY    22   5  48 N10       30.64S WCI  11
WEST PLAINS    CLOUDY    23  -3  32 NE8       30.55F WCI  14

$$



USA.gov is the U.S. government's official web portal to all federal, state and local government web resources and services.